"Pseudo-MPEC" for P10HM79

Created 2018 Jun 17 17:18:13 UT using Find_Orb

Click here for an explanation of pseudo-MPECs

 
 Astrometry: 
     P10HM79  C2018 06 13L/Astrometryte;kj8TD:owjZT4tHJ@=,l+c,Kq%kw5fb*1,BeQ]F51
     P10HM79  C2018 06 134('n6B^@cVLUajbf;AX9VxUa/b]NmtbO0erRI8oYKu.gaJbs=?qrF51
     P10HM79  C2018 06 13ZZZ=b'8$VnhAfAEXjXv;S+\o/EhL:DRNYok:aoq/^luYk-IJ*?#iF51
     P10HM79  C2018 06 14.36099 16 20 25.33 -00 40 13.8          19.1 GUNEOCPI52
     P10HM79  C2018 06 14.36134 16 20 25.21 -00 40 16.6          19.2 GUNEOCPI52
     P10HM79  C2018 06 14.36170 16 20 25.07 -00 40 18.7          19.0 GUNEOCPI52
     P10HM79  C2018 06 14.36205 16 20 24.95 -00 40 21.1          19.0 GUNEOCPI52
     P10HM79  C2018 06 14ULxToJL/H$7[N(v5RmEj9tI+(LU2k2U!_SU.W(=Y,.;4kkJw8IgQF52
     P10HM79  C2018 06 14Cj6%kkbXFcqyr%0Tvj;^_OOPyLh9sF]0%Uqb3=%^qQc',9KGx0vMF52
     P10HM79  C2018 06 14`PT(RGVR+fX+AOG/Fm=W1EcJpdH';PAk*$wQZ*6uukv*kR/4cTwgF52
     P10HM79  C2018 06 14$j_W@[H$_y/s)FsEAnjS\@+k.Hy`i#Y=YSx[W]4g03)=.Q.L*DGiF52
     P10HM79 KC2018 06 14iUkh;[EqnbPH`e%wF-Y65hBCnLA;p0KaR@vx8k:B9!.rR.?`RP;tE08
     P10HM79 KC2018 06 14r9iyZ^IEcdw*aOBRjdEEL=wZ67:ih0c:IRm]kp(T[Z^B/ZNyEsDqE08
     P10HM79 KC2018 06 14jv,'3FpU0YJYfqqWhS1I3pEC*svOlu!\qa=*a3:rGd+3[jI0ULC%E08
     P10HM79 KC2018 06 14q@0jq96l:McUjG=X;5%%@8;w\d-kk*qb%[-vtChiJ+Do,;MHPR'KK41
     P10HM79 KC2018 06 14DBHZa/KR9vnr1!n`y6OIuM(ik*?weDA.FUIU[UI1IACK6)J2s_l^587
     P10HM79 KC2018 06 14(]B5-FVomfrHGMK2wm/H]8Lc$E?dkWlOyHdaotVb:)d;VjNS]]UtK41
     P10HM79 KC2018 06 14P'7T'Wrr4?GhgeO\:redacted;_xTh=pE-DRD[.r15/f@85/W6wE587
     P10HM79 KC2018 06 14VL[peZJ.Q@S8_\mTe]=+y^Dhm!%j5p\+5pUCGPP_H6u))B@FM@*q587
     P10HM79 KC2018 06 14bwMAAMVkca'3qJZ!!sI7HtQH;Ru5\Gw4Ns/UO!?7(RbRgc-:fx=lJ69
     P10HM79 KC2018 06 14sHnhD#7kT%?M4tWimHK0XAMe[9dx`7!.%!R\8Cjq,kOO^w!^-Y%Z204
     P10HM79 KC2018 06 14D;MbmgynvXJN:L+4h#t3RIr)J06)jJ(_wj,ejU;H%i=AoU8YOKeS204
     P10HM79 KC2018 06 14wn#.*aR.ik+3wJWRe1/wS$yb2lBwE?k'OcY],$B@VGQ.2W@u.MTaJ77
     P10HM79 KC2018 06 145Js'lp2;)9jFM'-QJMaqXp]6j3x=g`,kY4^*npEwcjD6KQBOX)F6J69
     P10HM79 KC2018 06 14S^wK%:l?!]xiA(]kN[/rYyCdAsv%sf21m0\L$NkYfCHaL,STgbaIJ69
     P10HM79 KC2018 06 14d]v:p([MlyKFD*fBSNn_[w\Z8+xu\8kRN3l@+Ek,DPrf)4B[6HXrJ77
     P10HM79 KC2018 06 14(qWZF9rlE6@3\:\,$\Ql?Qa3pcEBEy%=mw/8gOKJCD,)f?SX^+8E204
     P10HM79 KC2018 06 14r..=PSZ)2Qv/`iwi:!28a;M[n+tSCsK+(i[5#dHT;1n*.]xcI7J?J77
     P10HM79 KC2018 06 14,w!\O.YHYd*y@YB3Y-[=p;YB,^a85mrk!+:4JD7#pA:^TH?q8gwZJ77
     P10HM79 KC2018 06 15.02099 16 16 01.69 -01 58 09.3                VNEOCPJ95
     P10HM79 KC2018 06 15.02506 16 15 59.98 -01 58 38.0                VNEOCPJ95
     P10HM79 KC2018 06 15.02920 16 15 58.29 -01 59 07.5          19.5 GVNEOCPJ95
     P10HM79 KC2018 06 15s5AfK^YwOZ\in,h_0,V+Gn`o31gKx+LT'8%eqn+^8SE9/fI:3=\PK38
     P10HM79 KC2018 06 15fIVdh;6vB(!ayW0^oH8n(Q#nT\qrr!^v1IM9:oB;1uLAZuirjK#mK38
     P10HM79 KC2018 06 15sW1/(*(]h$okvB_6k'+VWw6R@.Bkej?vsee!N$_Vb(41M0S2xm+UH36
     P10HM79 KC2018 06 15JR`osIk45]1k2iPB+21`uIrvHf[#6x/PG\yl!h(8Ss$B#GN62DP-H36
     P10HM79 KC2018 06 15n]ph?MX=\c?b0tP8f)ekCl.Y$RceeIp.hC@_Z)#Slg'vZmZE8`h*H36
     P10HM79 KC2018 06 15H!bd(!*QK8sI22)i\bV=^60r\I2$-ZZJ[DR6(];tVd-BGI1]1gI$H36
     P10HM79 KC2018 06 151v:4.ruiRyJQQ:YhUTDta@AdQ%O?YRwjN7X]/.L-Pm_DL'SZLMuF104
     P10HM79 KC2018 06 15I_x(h=aA:,I+,nL20Z#s`*:dA`MjyKrhB4c6@2u^si1+TEH1b;ry104
     P10HM79 KC2018 06 15D@hsQ;aMO$cIk^-d'rI[=Km54bbjBa4bAW\Lrwy!VJGW1[*Zq!`k104
     P10HM79 KC2018 06 16tSdInSe50!a\y:]UV-V0gkH!JaZo[;HdpS)+=+Fy^`\miIL-jq0kH36
     P10HM79 KC2018 06 1644-n)B/QBM!O1,l,kTlM!bp$4$n+h9?Fh+CQ6e%7;jw-`)S:uZo]H36
     P10HM79 KC2018 06 16QsK/A0wZ*y[r^X#tC\e8LbF2kS@3uWdn\Mil$$P#9H;q5:bS5S!aH36
     P10HM79 KC2018 06 16`([s#88LNe;ujsKG2Nc)TRxp-++I^a1DilqF_/r3Ohbsa4@tb]WpH36
     P10HM79  C2018 06 166UfC`LFD3WB$:Hc#uPR=9K$'FRi)0_se%pLQ=JdNG@R;CoK[mP9tP93
     P10HM79  C2018 06 16vl=ZV-g[Xm3urQ#?rVZ;%R3%WHr.aF^Scr/?QU^Dh3?j5ko`s_YAP93
     P10HM79  C2018 06 162A]X6BR;XQppO8]F2N[#N+d.-7n@3bp^B`Zt`P-7FWA_;gKNEOCPP93

Station data:
(104) San Marcello Pistoiese  (N44.063037 E10.804200)  Italy. 0.40-m f/5
   reflector.
(204) Schiaparelli Observatory  (N45.867933 E8.770800)  Italy.  Observer L.
   Buzzi. 0.60-m f/4.64 Newtonian + CCD.
(587) Sormano  (N45.882949 E9.229180)  Italy.  Observers F. Manca, A. Testa.
   Measurer F. Manca. 0.5-m + CCD.
(E08) Wobblesock Observatory, Coonabarabran  (S31.226991 E149.334310)
   Australia/NSW.
(F51) Pan-STARRS 1, Haleakala  (N20.707235 W156.255910)  US/Hawaii.
   Observers N. Primak, A. Schultz, S. Watters, J. Thiel, T. Goggia. Measurer
   PS1 Science Consortium. 1.8-m Ritchey-Chrétien + CCD.
(F52) Pan-STARRS 2, Haleakala  (N20.707384 W156.255910)  US/Hawaii.
(H36) Sandlot Observatory, Scranton  (N38.797693 W95.706400)  US/Kansas.
   Observer G. Hug. 0.56-m reflector + CCD.
(I52) Steward Observatory, Mt. Lemmon Station  (N32.442547 W110.788920)
   US/Arizona.  Observers B. M. Africano, E. J. Christensen, D. C. Fuls, A.
   R. Gibbs, A. D. Grauer, J. A. Johnson, R. A. Kowalski, S. M. Larson, G. J.
   Leonard, R. L. Seaman, F. C. Shelly. 1.0-m reflector + CCD.
(J69) North Observatory, Clanfield  (N50.939014 W1.019700)  UK.
(J77) Golden Hill Observatory, Stourton Caundle  (N50.930949 W2.405300)  UK.
   Observer R. Miles. 0.28-m f/10 Schmidt-Cassegrain + CCD.
(J95) Great Shefford  (N51.474969 W1.447003)  UK.  Observer P. Birtwhistle.
   0.40-m f/6.0 Schmidt-Cassegrain + CCD.
(K38) M57 Observatory, Saltrio  (N45.522304 E8.551100)  Italy.
(K41) Vegaquattro Astronomical Obs., Novi Ligure  (N44.771183 E8.793000)
   Italy.
(P93) Space Tracking and Communications Center, JAXA  (N34.672353
   E133.544330)  Japan.

Orbital elements:  P10HM79
   Perihelion 2018 Sep 27.983078 +/- 2.13 TT = 23:35:38 (JD 2458389.483078)
Epoch 2018 Jun 16.0 TT = JDT 2458285.5   Earth MOID: 0.2375   AutoNEOCP
M 293.12439 +/- 2.2                 (J2000 ecliptic)
n   0.64313933 +/- 0.00822          Peri.  259.97155 +/- 2.1
a   1.32922755 +/- 0.0113           Node    82.96873 +/- 0.057
e   0.1611109 +/- 0.00234           Incl.   48.23416 +/- 0.39
P   1.53/559.74d           H 21.0   G  0.15   U  9.5  
q 1.11507447 +/- 0.00635    Q 1.54338062 +/- 0.0161
From 48 observations 2018 June 13-16; mean residual 0".63
Residuals in arcseconds: 
180613 F51  .01-  .24-    180614 K41  1.4+  2.3+    180615 K38  .05+  .13+    
180613 F51  .13+  .11-    180614 587  1.0+  .36+    180615 K38  .65+  1.3-    
180613 F51  .09+  .19-    180614 587  .90+  .26+    180615 H36  .75+  .02+    
180614 I52  .25-  .01-    180614 J69  .70-  .48+    180615 H36  .68-  1.2-    
180614 I52  .09+  .35-    180614 204  .18-  .36-    180615 H36  .05-  .19-    
180614 I52  .19+  .07+    180614 204  .23-  .19-    180615 H36  .47-  .02+    
180614 I52  .52+  .13+    180614 J77  .19-  .23-    180615 104  .19-  .00     
180614 F52  .03+  .13-    180614 J69  .11-  1.2-    180615 104  .16+  .04-    
180614 F52  .06+  .19-    180614 J69  .02+  .56-    180615 104  .43-  .05+    
180614 F52  .15+  .22-    180614 J77  .16+  .24-    180616 H36  .13-  .46-    
180614 F52  .11+  .27-    180614 204  .11+  .21-    180616 H36  .23-  .04-    
180614 E08  .29+  .20+    180614 J77  1.0+  .17-    180616 H36  .17+  .65-    
180614 E08  .06-  .16-    180614 J77  .55+  .10-    180616 H36  .08-  .34-    
180614 E08  .62-  .46+    180615 J95  .38+  .08-    180616 P93  .27+  .08-    
180614 K41  3.9-  .88+    180615 J95  .29-  .20+    180616 P93  .22+  .49+    
180614 587  .35+  .20+    180615 J95  .23-  .18+    180616 P93  .28+  .09+    

Ephemerides (geocentric):
Date (UTC) HH   RA              Dec         delta   r     elong  mag " sig PA
---- -- -- --  -------------   -----------  ------ ------ -----  --- ---- ---
2018 06 17 17  15 57 47.017   -07 23 02.42  .28696 1.2726 150.0 19.9  .40 110
2018 06 17 18  15 57 29.860   -07 28 08.75  .28695 1.2725 150.0 19.9  .41 111
2018 06 17 19  15 57 12.701   -07 33 15.13  .28693 1.2724 149.9 19.9  .43 112
2018 06 17 20  15 56 55.537   -07 38 21.54  .28692 1.2723 149.9 19.9  .45 112
2018 06 17 21  15 56 38.371   -07 43 27.98  .28691 1.2722 149.8 19.9  .46 113
2018 06 17 22  15 56 21.201   -07 48 34.46  .28690 1.2721 149.8 19.9  .48 114
2018 06 17 23  15 56 04.028   -07 53 40.97  .28689 1.2720 149.7 19.9  .50 114
2018 06 18 00  15 55 46.852   -07 58 47.50  .28688 1.2719 149.7 19.9  .51 115
2018 06 18 01  15 55 29.673   -08 03 54.06  .28687 1.2718 149.6 19.9  .53 116
2018 06 18 02  15 55 12.491   -08 09 00.63  .28686 1.2717 149.6 19.9  .55 116
2018 06 18 03  15 54 55.306   -08 14 07.22  .28686 1.2716 149.5 19.9  .57 117
2018 06 18 04  15 54 38.118   -08 19 13.82  .28686 1.2715 149.5 19.9  .59 117
2018 06 18 05  15 54 20.928   -08 24 20.44  .28685 1.2714 149.4 19.9  .60 118
2018 06 18 06  15 54 03.735   -08 29 27.05  .28685 1.2713 149.4 19.9  .62 118
2018 06 18 07  15 53 46.540   -08 34 33.67  .28685 1.2712 149.3 19.9  .64 118
2018 06 18 08  15 53 29.342   -08 39 40.29  .28685 1.2711 149.3 19.9  .66 119
2018 06 18 09  15 53 12.142   -08 44 46.91  .28686 1.2710 149.2 19.9  .68 119
2018 06 18 10  15 52 54.940   -08 49 53.52  .28686 1.2709 149.2 19.9  .70 120
2018 06 18 11  15 52 37.735   -08 55 00.12  .28686 1.2708 149.1 19.9  .73 120
2018 06 18 12  15 52 20.529   -09 00 06.70  .28687 1.2707 149.1 19.9  .75 120
2018 06 18 13  15 52 03.320   -09 05 13.27  .28688 1.2706 149.0 19.9  .77 120
2018 06 18 14  15 51 46.110   -09 10 19.82  .28689 1.2705 149.0 19.9  .79 121
2018 06 18 15  15 51 28.897   -09 15 26.34  .28689 1.2704 148.9 19.9  .81 121
2018 06 18 16  15 51 11.683   -09 20 32.84  .28691 1.2703 148.9 19.9  .83 121
2018 06 18 17  15 50 54.468   -09 25 39.30  .28692 1.2702 148.8 19.9  .86 121
2018 06 18 18  15 50 37.251   -09 30 45.74  .28693 1.2701 148.8 19.9  .88 122
2018 06 18 19  15 50 20.032   -09 35 52.14  .28695 1.2700 148.7 19.9  .90 122
2018 06 18 20  15 50 02.812   -09 40 58.49  .28696 1.2699 148.6 19.9  .93 122
2018 06 18 21  15 49 45.591   -09 46 04.81  .28698 1.2698 148.6 19.9  .95 122
2018 06 18 22  15 49 28.368   -09 51 11.08  .28700 1.2697 148.5 19.9  .97 122
2018 06 18 23  15 49 11.145   -09 56 17.30  .28702 1.2696 148.5 19.9  1.0 123
2018 06 19 00  15 48 53.920   -10 01 23.46  .28704 1.2695 148.4 19.9  1.0 123
2018 06 19 01  15 48 36.694   -10 06 29.57  .28706 1.2694 148.4 19.9  1.0 123
2018 06 19 02  15 48 19.468   -10 11 35.62  .28708 1.2693 148.3 19.9  1.1 123
2018 06 19 03  15 48 02.241   -10 16 41.61  .28710 1.2692 148.2 19.9  1.1 123
2018 06 19 04  15 47 45.013   -10 21 47.54  .28713 1.2691 148.2 19.9  1.1 123
2018 06 19 05  15 47 27.784   -10 26 53.39  .28716 1.2690 148.1 19.9  1.2 123
2018 06 19 06  15 47 10.555   -10 31 59.18  .28718 1.2689 148.1 19.9  1.2 123
2018 06 19 07  15 46 53.325   -10 37 04.88  .28721 1.2688 148.0 19.9  1.2 124
2018 06 19 08  15 46 36.095   -10 42 10.51  .28724 1.2687 147.9 19.9  1.2 124
2018 06 19 09  15 46 18.865   -10 47 16.06  .28727 1.2686 147.9 19.9  1.3 124
2018 06 19 10  15 46 01.635   -10 52 21.53  .28731 1.2685 147.8 19.9  1.3 124
2018 06 19 11  15 45 44.404   -10 57 26.90  .28734 1.2684 147.7 19.9  1.3 124
2018 06 19 12  15 45 27.174   -11 02 32.19  .28737 1.2683 147.7 19.9  1.3 124
2018 06 19 13  15 45 09.943   -11 07 37.38  .28741 1.2682 147.6 19.9  1.4 124
2018 06 19 14  15 44 52.713   -11 12 42.47  .28745 1.2681 147.6 19.9  1.4 124
2018 06 19 15  15 44 35.483   -11 17 47.46  .28749 1.2680 147.5 19.9  1.4 124
2018 06 19 16  15 44 18.253   -11 22 52.35  .28753 1.2679 147.4 19.9  1.5 124